STARLINK-33682, 63433

Orbit data source: Space-Track

STARLINK-33682, 63433 is a payload satellite owned by SpaceX/Seattle (US) in LEO that was launched on Fri, 04 Apr 2025 UTC via an FALCON 9 launch vehicle from the Air Force Western Test Range (AFWTR). Payload-class satellites include a variety of spacecraft equipped with specific instruments for various scientific and technological missions. These include communications satellites like Starlink; space stations such as the ISS; scientific satellites like the Hubble; Earth observation satellites from companies like Planet Labs, Umbra, and HawkEye 360; GPS; miniature CubeSats for education and research; and military/defense satellites.

Loading next visibility...
Identifier
63433, 2025-069A
Orbit
LEO
Country
Flag of USUS
Related business
Manufacturer
SpaceX/Seattle
Mission
Operational Commercial Communications
Bus & Motor
STARLINK V2MO, Unknown motor
Mass
575 kg wet, ~530 kg dry
Launch date (UTC)
2025-04-04 (1 year ago)
Launch vehicle
FALCON 9
Launch site
Air Force Western Test Range (AFWTR)
Object type
Payload
Rocket body
Debris
Shape & HBR
Box + 2 Pan, 17.7 m
Radar Cross Section
36.964 m², Large (>1 m²)

Expand to show TLE details & history
Last TLE update: 11 hours ago

TLE from 11 hours ago
0 STARLINK-33682
1 63433U 25069A   26145.26788181  .00024209  00000-0  56373-3 0  9994
2 63433  53.1581 144.3330 0000575  77.7832 282.3238 15.42175073 65164
Epoch: 2026-05-25T06:25Z
TLE epoch observation values (Epoch: 2026-05-25T06:25:44.988Z)
Latitude
-0.00004°
Longitude
165.0374°
Altitude
440.512 km
Speed
7.649 km/s
True Right ascension
09h 37m 19s
True Declination
0° 00' 00"
Sunlit
Object was in daylight at epoch
Visualization orbit readout
Latitude
Unknown
Longitude
Unknown
Altitude
Unknown
Speed
Unknown
Apparent Right ascension
Unknown
Apparent Declination
Unknown
Sunlit
N/A
Visualization observer readout
Local Sidereal Time
03:06:00
Azimuth
Unknown
Elevation
Unknown
Doppler factor
Unknown
Orbital elements
Apogee altitude
440.341 km
Perigee altitude
439.557 km
Semi-major axis
6,818.086 km
Eccentricity
0.00006
Inclination
53.1581°
RAAN
144.333°
Arg. of periapsis
77.7832°
True anomaly
282.31736°
Mean anomaly
282.3238°
Eccentric anomaly
282.32058°
Mean motion
3.85522 °/min
Orbital period
93.38 mins
BSTAR
0.00056373
Loading maneuver chart data...
Computing Atmospheric mass density...
Loading historical data...
Loading historical data...
Loading historical data...
Loading historical data...
Loading historical data...
Loading historical data...
Loading historical data...

Documentation

Showing up to 5 results
|